Location: Wonder Lake State Park
(41.4960°N, 73.6562°W)
Time: 01:34:53
(UTC-05:00)

Daily predictions for brighter satellites

Satellite Brightness Start Highest point End
(mag) Time Altitude Azimuth Time Altitude Azimuth Time Altitude Azimuth
CZ-4C R/B 4.3 03:53:48 16° SE 03:56:03 21° ESE 04:00:09 10° ENE
Cosmos 1697 Rocket 4.1 04:06:25 30° SE 04:06:25 30° SE 04:09:09 10° SSE
Cosmos 2082 Rocket 4.1 04:10:23 21° NNE 04:10:23 21° NNE 04:12:09 10° NNE
Lacrosse 5 rocket 4.1 04:13:05 15° SE 04:13:05 15° SE 04:13:56 10° SE
USA 267 3.4 04:18:27 10° NE 04:24:02 57° N 04:24:02 57° N
Cosmos 1980 Rocket 2.1 04:43:32 79° NNW 04:43:54 89° WSW 04:49:33 10° SSE
Nadezhda 4 Rocket 4.1 04:47:14 10° S 04:53:20 71° E 04:59:26 10° NNE
SKYMED 2 4.0 04:51:17 10° SSE 04:55:33 60° ENE 04:56:58 38° NNE
USA 234 3.2 04:52:54 10° SE 04:59:27 82° NE 05:02:14 38° NW
SeaSat 1 2.9 04:55:35 10° NNE 04:59:15 44° NNW 04:59:15 44° NNW
NOAA 6 4.1 04:57:31 10° NNE 05:02:40 75° ESE 05:07:47 10° S
Meteor 2-4 Rocket 3.5 05:06:49 36° NNW 05:09:00 70° W 05:14:32 10° S
Meteor 1-13 Rocket 4.4 05:09:47 42° NW 05:11:19 53° W 05:17:05 10° S
Meteor 1-11 Rocket 3.8 05:10:58 10° SSW 05:16:48 56° WNW 05:22:33 10° N
Timation 2 Rocket 4.1 05:11:39 10° SSW 05:18:32 76° WNW 05:25:26 10° NNE
CZ-2C R/B 3.0 05:14:43 10° NNE 05:19:31 57° E 05:24:07 10° S
Feng Yun 1-1 Rocket 4.2 05:13:48 10° NNE 05:19:38 80° WNW 05:25:18 10° SSW
Meteor 2-20 Rocket 4.3 05:13:58 10° SSW 05:20:04 73° W 05:26:10 10° N
CZ-2C R/B 4.5 05:17:41 10° SSW 05:20:44 33° SW 05:20:44 33° SW
SL-16 R/B 2.5 05:18:14 16° NNW 05:22:46 66° ENE 05:28:23 10° SSE
Cosmos 773 Rocket 3.8 05:19:24 10° SSW 05:24:31 86° WNW 05:29:44 10° NNE
IDEFIX/ARIANE 42P 2.5 05:19:29 10° NNE 05:24:43 88° ESE 05:29:57 10° SSW
Cosmos 1300 Rocket 3.4 05:22:13 10° SSW 05:26:28 61° W 05:30:46 10° N
Cosmos 2322 Rocket 2.4 05:24:19 15° NNW 05:29:02 72° ENE 05:34:43 10° SSE
Cosmos 1092 Rocket 3.9 05:27:17 10° S 05:33:24 82° W 05:39:36 10° N
Cosmos 1025 Rocket 3.1 05:31:08 10° N 05:35:26 78° E 05:39:43 10° S
Cosmos 1536 Rocket 4.0 05:35:23 36° W 05:35:34 36° W 05:39:33 10° SSW
EO 1 Del DPAF 3.5 05:35:40 10° S 05:39:20 46° W 05:40:30 34° NW
COSMO-SKYMED 1 3.0 05:39:34 10° SSW 05:43:38 39° W 05:45:33 25° NW
CZ-4C R/B 2.2 05:39:08 12° SW 05:43:54 56° NW 05:49:47 10° NNE
BREEZE-M DEB (TANK) 3.7 05:40:07 21° WNW 05:44:37 41° N 05:47:36 10° ENE
Okean-O 3.0 05:42:06 10° N 05:46:16 41° WNW 05:50:26 10° SW
Meteor 1-5 Rocket 4.3 05:41:08 10° SSW 05:46:21 45° WNW 05:51:29 10° N
Cosmos 1697 Rocket 4.4 05:48:13 13° WSW 05:48:13 13° WSW 05:49:46 10° SW
Cosmos 2026 Rocket 4.1 05:42:19 10° S 05:48:34 81° E 05:54:57 10° N
RESURS DK-1 3.8 05:50:27 20° WSW 05:50:27 20° WSW 05:53:10 10° SSW
Thor Agena Rocket 3.7 05:46:06 10° SSE 05:51:06 72° ENE 05:56:11 10° N
Cosmos 2082 Rocket 3.9 05:52:17 15° NW 05:52:17 15° NW 05:54:37 10° NNW
Cosmos 192 4.4 05:48:06 10° SW 05:52:53 55° WNW 05:57:45 10° N
Cosmos 1538 Rocket 4.4 05:49:57 10° SW 05:54:50 39° WNW 05:59:48 10° N
COSMOS 2441 4.3 05:51:28 10° N 05:56:19 81° WNW 06:01:07 10° SSW
Cosmos 1833 Rocket 4.5 05:58:35 13° NW 05:58:35 13° NW 06:00:17 10° NNW
Cosmos 1627 Rocket 4.5 05:51:53 10° S 05:58:13 78° W 06:04:38 10° N
Meteor 1-4 Rocket 2.9 05:55:43 10° SSW 05:59:21 45° WNW 06:03:01 10° N
Okean 1 Rocket 3.4 05:56:11 10° SSW 06:00:20 42° WNW 06:04:32 10° N
CZ-4 R/B 3.0 05:58:46 10° NNE 06:02:43 39° E 06:06:41 10° SSE
MINOTAUR R/B 4.4 06:01:39 15° SW 06:03:24 38° WNW 06:05:42 10° N
Cosmos 1500 3.4 05:59:41 10° SSW 06:03:25 47° W 06:07:08 10° N
Cosmos 923 Rocket 3.9 05:58:12 10° SSW 06:03:27 73° WNW 06:08:41 10° NNE
Meteor 2-11 Rocket 4.4 06:00:38 10° NNW 06:06:39 62° W 06:12:36 10° S
USA 267 4.3 06:01:46 10° NE 06:07:06 28° NNW 06:11:24 14° WNW
OE (NEXTSAT) 4.4 06:07:57 20° WNW 06:10:20 72° SSW 06:13:52 10° ESE
Cosmos 1271 Rocket 3.9 06:07:46 10° SSE 06:11:23 45° E 06:15:00 10° NNE
Cosmos 2333 Rocket 4.4 06:12:30 10° N 06:16:45 21° NE 06:20:58 10° E
SJ-12 4.2 06:14:03 10° N 06:17:56 44° WNW 06:21:48 10° SW
Cosmos 1428 Rocket 4.5 06:12:44 10° S 06:19:03 81° W 06:25:23 10° N
Cosmos 2112 Rocket 3.9 06:14:43 10° SSW 06:19:54 79° WNW 06:25:08 10° NNE
COSMOS 2428 4.1 06:14:47 10° N 06:20:03 36° ENE 06:25:17 10° ESE
Cosmos 1892 Rocket 3.5 06:16:26 10° N 06:20:51 86° W 06:25:12 10° S
YAOGAN 1 4.0 06:16:56 10° NNE 06:21:04 42° E 06:25:11 10° S
Okean 2 4.3 06:17:54 10° NNW 06:21:27 29° W 06:24:59 10° SSW
APEX 3.1 06:18:51 10° SW 06:22:06 60° WNW 06:26:12 10° NNE
SMAP 3.1 06:18:23 10° NNE 06:23:05 88° ESE 06:27:44 10° SSW
Cosmos 1066 Rocket 4.1 06:18:46 10° NNW 06:24:02 61° W 06:29:23 10° S
SJ-7 4.4 06:21:35 10° N 06:25:37 65° WNW 06:29:39 10° SSW
Cosmos 2360 Rocket 2.3 06:20:23 10° NNW 06:26:06 86° ENE 06:31:47 10° SSE
Cosmos 1980 Rocket 4.0 06:25:22 10° WNW 06:26:59 11° W 06:28:46 10° WSW
Cosmos 2056 Rocket 4.2 06:22:02 10° N 06:27:04 53° ENE 06:32:05 10° SE
Cosmos 1975 3.1 06:26:00 10° SSW 06:29:48 43° WNW 06:33:37 10° N
GEOS 3 Rocket 3.8 06:29:37 10° NNE 06:34:57 60° NW 06:40:12 10° SW
ALOS 4.2 06:31:24 10° NNE 06:35:41 35° E 06:39:56 10° SSE
Cosmos 1666 2.6 06:31:56 10° SSW 06:35:45 68° W 06:39:34 10° N
Cosmos 2219 Rocket 3.8 06:31:05 10° N 06:36:06 31° NE 06:41:05 10° ESE
SeaSat 1 4.4 06:36:50 10° NW 06:36:59 10° NW 06:37:09 10° NW
Cosmos 1184 Rocket 4.3 06:40:14 10° NW 06:42:42 19° W 06:45:09 10° SW
USA 234 4.4 06:37:29 10° S 06:42:53 27° SW 06:48:19 10° WNW
Cosmos 2285 Rocket 4.2 06:37:36 10° SW 06:43:40 47° WNW 06:49:45 10° N
ATLAS CENTAUR R/B 1.9 06:40:05 10° SSW 06:43:43 56° ESE 06:47:20 10° NE
MSX 4.5 06:39:15 10° N 06:44:18 33° WNW 06:49:19 10° SW
